Flag for Japan Weather past 2 weeks in Kawasaki, Japan

Now
68 °F

Partly sunny.


Feels Like: 68 °F
Forecast: 65 / 76 °F
Wind: 2 mph from North

Location: Tokyo International Airport

Current Time: May 25, 2015 at 6:28:51 AM

Latest Report: May 25, 2015 at 6:00 AM


Visibility: N/A

Pressure: 29.83 "Hg

Humidity: 78%

Dew point: 61 °F

Location of KawasakiLocation

Historic Weather in Kawasaki — Graph

°F

Kawasaki temperature yesterday

Maximum temperature yesterday: 73 °F (at 12:00 PM)
Minimum temperature yesterday: 66 °F (at 8:00 PM)
Average temperature yesterday: 70 °F

Past Weeks' High & Low Weather Summary

 TemperatureHumidityPressure
High81 °F (May 17, 2:00 PM)94% (May 12, 8:48 PM)30.21 "Hg (May 12, 8:48 PM)
Low55 °F (May 11, 5:00 AM)21% (May 11, 1:00 PM)29.42 "Hg (May 12, 10:46 PM)
Average70 °F67%29.79 "Hg
* Reported May 10 5:00 AM — May 25 5:00 AM, Kawasaki, Weather by CustomWeather, © 2015

Note: Actual official high and low records may vary slightly from our data, if they occured in-between our weather recording intervals... More about our weather records

Advertising

Kawasaki weather history for previous 24 hours

 ConditionsComfort  
Time TempWeatherWind HumidityBarometerVisibility
5:00 AM
Mon, May 25
66 °FPartly sunny.5 mph83%29.80 "HgN/A
4:30 AM66 °FPartly sunny.5 mph83%29.80 "HgN/A
4:00 AM66 °FPassing clouds.3 mph83%29.80 "HgN/A
3:30 AM66 °FPassing clouds.3 mph83%29.77 "HgN/A
3:00 AM66 °FPassing clouds.5 mph83%29.77 "HgN/A
2:30 AM66 °FPassing clouds.3 mph83%29.77 "HgN/A
2:00 AM66 °FPassing clouds.5 mph83%29.77 "HgN/A
1:30 AM66 °FPassing clouds.5 mph83%29.77 "HgN/A
1:00 AM66 °FPassing clouds.5 mph83%29.77 "HgN/A
12:30 AM66 °FPassing clouds.5 mph83%29.77 "HgN/A
12:00 AM68 °FPassing clouds.3 mph78%29.77 "HgN/A
11:30 PM
Sun, May 24
68 °FPassing clouds.5 mph78%29.77 "HgN/A
11:00 PM66 °FPassing clouds.5 mph83%29.77 "HgN/A
10:30 PM66 °FPassing clouds.3 mph83%29.77 "HgN/A
10:00 PM68 °FPassing clouds.3 mph78%29.77 "HgN/A
9:30 PM68 °FPassing clouds.3 mph78%29.74 "HgN/A
9:00 PM68 °FPassing clouds.3 mph78%29.77 "HgN/A
8:30 PM68 °FPassing clouds.3 mph78%29.74 "HgN/A
8:00 PM66 °FPassing clouds.5 mph78%29.74 "HgN/A
7:30 PM68 °FPassing clouds.5 mph78%29.74 "HgN/A
7:00 PM68 °FPassing clouds.6 mph78%29.74 "HgN/A
6:30 PM70 °FPartly sunny.6 mph69%29.74 "HgN/A
6:00 PM70 °FPartly sunny.7 mph73%29.74 "HgN/A
5:30 PM72 °FBroken clouds.8 mph65%29.71 "HgN/A
5:00 PM72 °FPartly sunny.7 mph65%29.71 "HgN/A
4:30 PM72 °FPartly sunny.8 mph57%29.74 "HgN/A
4:00 PM72 °FPartly sunny.8 mph57%29.71 "HgN/A
3:30 PM73 °FPartly sunny.5 mph61%29.74 "HgN/A
3:00 PM73 °FPartly sunny.5 mph61%29.74 "HgN/A
2:30 PM72 °FPartly sunny.3 mph53%29.74 "HgN/A
2:00 PM72 °FPartly sunny.6 mph57%29.74 "HgN/A
1:30 PM72 °FPartly sunny.7 mph57%29.74 "HgN/A
1:00 PM72 °FPartly sunny.8 mph57%29.74 "HgN/A
12:30 PM73 °FBroken clouds.8 mph50%29.77 "HgN/A
12:00 PM73 °FBroken clouds.10 mph50%29.77 "HgN/A
11:30 AM72 °FBroken clouds.9 mph50%29.77 "HgN/A
11:00 AM72 °FPartly sunny.8 mph44%29.80 "HgN/A
10:30 AM72 °FPartly sunny.7 mph44%29.80 "HgN/A
10:00 AM72 °FPartly sunny.8 mph41%29.80 "HgN/A
9:30 AM72 °FPartly sunny.8 mph41%29.80 "HgN/A
9:00 AM70 °FLight rain. Mostly cloudy.10 mph46%29.80 "HgN/A
8:30 AM70 °FMore clouds than sun.13 mph50%29.80 "HgN/A
8:00 AM70 °FLight rain. More clouds than sun.15 mph53%29.83 "HgN/A
7:30 AM70 °FMostly cloudy.18 mph64%29.83 "HgN/A
7:00 AM70 °FMostly cloudy.15 mph69%29.83 "HgN/A
6:30 AM70 °FMostly cloudy.14 mph69%29.80 "HgN/A
6:00 AM70 °FOvercast.12 mph69%29.80 "HgN/A
Weather by CustomWeather, © 2015

See weather overviewHow to use our weather pages